Regional Weather Roundup
Issued by NWS

Home | Current Version | Previous Version | Text Only | Print | Product List | Glossary On
Versions: 1 2 3 4 5 6 7 8 9 10 11 12 13 14 15 16 17 18 19 20 21 22 23 24 25 26 27 28 29 30 31 32 33 34 35 36 37 38 39 40 41 42 43 44 45 46 47 48 49 50
000
ASUS45 KBOU 152310
RWRCO

WEATHER ROUNDUP FOR COLORADO
NATIONAL WEATHER SERVICE DENVER/BOULDER CO
400 PM MST FRI FEB 15 2019

NOTE: "FAIR" INDICATES FEW OR NO CLOUDS BELOW 12000 FEET WITH NO
SIGNIFICANT WEATHER AND/OR OBSTRUCTIONS TO VISIBILITY.

COZ001>005-013-030-031-160000-
...NORTHWEST COLORADO...

CITY           SKY/WX    TMP DP  RH WIND       PRES   REMARKS
CRAIG          FAIR      40  27  59 SW9       29.75F
HAYDEN         PTSUNNY   40  23  50 W6        29.77F
MEEKER         FAIR      43  26  51 S15G24    29.77F
RANGELY        FAIR      45  26  47 SW17G23   29.74S
RABBIT EARS PA MOCLDY    27  25  93 W6        29.80F WCI  20
STEAMBOAT SPGS FAIR      41  23  48 CALM      29.76F
WALDEN         FAIR      34  19  55 SW10G18   29.77S WCI  26
$$

COZ006>008-011-160000-
...WEST CENTRAL VALLEYS...

CITY           SKY/WX    TMP DP  RH WIND       PRES   REMARKS
GRAND JUNCTION FAIR      51  36  56 CALM      29.78F
MONTROSE       FAIR      49  20  31 W9        29.85S
EAGLE          CLOUDY    44  21  40 W16G23    29.81F
RIFLE          FAIR      45  33  63 S5        29.78F
DELTA          FAIR      53  27  37 S3        29.84S
NUCLA          FAIR      43  28  56 S15       29.92
$$

COZ017>023-064>068-160000-
...SOUTHWEST COLORADO...

CITY           SKY/WX    TMP DP  RH WIND       PRES   REMARKS
DURANGO        FAIR      38  30  73 SE6       29.97R
CORTEZ         FAIR      45  29  53 S10       29.93F
PAGOSA SPRINGS NOT AVBL
TELLURIDE      FAIR      37   9  30 SE6       29.93S
WOLF CREEK PAS CLOUDY    18  18 100 S21G38    29.99S WCI   1
$$

COZ009-010-012-014-032>034-037-058>063-160000-
...CENTRAL COLORADO...

CITY           SKY/WX    TMP DP  RH WIND       PRES   REMARKS
ASPEN          FAIR      42   9  25 S17G24    29.80R
BUENA VISTA    FAIR      39   9  29 W7        29.83S
COPPER MTN     FAIR      28   9  43 SW13G24   29.87S WCI  18
BERTHOUD PASS  FAIR      21  10  63 SW20G43   29.84F WCI   6
COTTONWOOD PAS FAIR      34  10  37 CALM      29.86S
GUNNISON       FAIR      37  26  64 E3        29.86S
GRANBY         FAIR      37  20  50 W14G20    29.79F
KREMMLING      FAIR      39  23  52 SW12G26   29.78S
LEADVILLE      FAIR      32   6  33 SW10      29.82S WCI  24
MONARCH PASS   CLOUDY    21  18  86 MISG      30.01S
SALIDA         FAIR      46  25  44 S8        29.90S
SUNLIGHT       FAIR      25  21  86 MISG      29.87S
WILKERSON PASS FAIR      30  16  55 SW15G24   29.88F WCI  19
$$

COZ069>075-160000-
...SAN LUIS VALLEY/SANGRE DE CRISTO MOUNTAINS...

CITY           SKY/WX    TMP DP  RH WIND       PRES   REMARKS
ALAMOSA        FAIR      38  24  57 S15       29.88S
DEL NORTE      FAIR      38  18  44 SW15      29.88F
LA VETA PASS   NOT AVBL
SAGUACHE       FAIR      39  28  65 CALM      29.88S
$$

COZ035-036-038>040-160000-
...NORTHERN COLORADO FRONT RANGE...

CITY           SKY/WX    TMP DP  RH WIND       PRES   REMARKS
DENVER INTL AP FAIR      56  16  20 NE5       29.66R
AURORA         MOSUNNY   57  20  23 E10       29.67R
FRONT RANGE AP MOSUNNY   55  27  33 E13       29.68R
ERIE MUNI ARPT FAIR      56  14  18 NE7       29.70R
BOULDER MUN AP FAIR      57  14  18 SW14G22   29.64R
CENTENNIAL     FAIR      57  15  19 SW12G21   29.67R
BROOMFIELD     NOT AVBL
FORT COLLINS   FAIR      51  23  33 E16       29.66R
LONGMONT       FAIR      60  12  15 NW13G24   29.66S
$$

COZ041-046-047-076>085-087-088-160000-
...PIKES PEAK/PALMER DIVIDE AND SOUTHERN FOOTHILLS...

CITY           SKY/WX    TMP DP  RH WIND       PRES   REMARKS
COLO. SPRINGS  FAIR      59   9  13 W16G23    29.69S
A. F. ACADEMY  FAIR      53   5  14 W14G36    29.65F
SCHRIEVER AFB  NOT AVBL
CHEYENNE MTN   FAIR      50  -3  11 E3        29.64S
ELLICOTT       NOT AVBL
FALCON         FAIR      54   1  11 W25G40    29.71F
FORT CARSON    FAIR      57  -4   8 W12       29.67S
LIMON          FAIR      50  22  33 SE12      29.69S
MONUMENT HILL  FAIR      45  21  39 W9        29.74S
CANON CITY     FAIR      59  21  23 W20G30    29.73S
WALSENBURG     NOT AVBL
TRINIDAD       FAIR      60  11  14 W17G31    29.76R
$$

COZ042>045-048>051-090-091-160000-
...NORTHEAST COLORADO...

CITY           SKY/WX    TMP DP  RH WIND       PRES   REMARKS
GREELEY ARPT   FAIR      52  24  33 SE10      29.68R
AKRON          FAIR      43  22  43 SE17      29.72R
BURLINGTON     FAIR      32  17  54 SE15G22   29.80R WCI  22
WRAY           FAIR      34  16  47 SE15      29.81R WCI  24
YUMA           NOT AVBL
STERLING       FAIR      43  21  42 SE12G22   29.71R
HOLYOKE        FAIR      34  18  51 SE15      29.80S WCI  24
FORT MORGAN      N/A     50  21  32 E8        29.70R
$$

COZ086-089-092>099-160000-
...SOUTHEAST COLORADO...

CITY           SKY/WX    TMP DP  RH WIND       PRES   REMARKS
PUEBLO         FAIR      64  17  16 NW21      29.69R
LA JUNTA       FAIR      46  24  42 E17       29.72S
LAMAR          FAIR      33  21  61 SE14      29.79R WCI  23
SPRINGFIELD      N/A     31  23  72 SE10      29.80R WCI  22
$$



USA.gov is the U.S. government's official web portal to all federal, state and local government web resources and services.